Regional Weather Roundup
Issued by NWS Cleveland, OH

Home | Current Version | Previous Version | Graphics & Text | Print | Product List | Glossary On
Versions: 1 2 3 4 5 6 7 8 9 10 11 12 13 14 15 16 17 18 19 20 21 22 23 24 25 26 27 28 29 30 31 32 33 34 35 36 37 38 39 40 41 42 43 44 45 46 47 48 49 50
000
ASUS41 KCLE 300410
RWRCLE
OHIO REGIONAL WEATHER ROUNDUP
NATIONAL WEATHER SERVICE CLEVELAND, OH
1200 AM EDT MON MAR 30 2015

NOTE: "FAIR" INDICATES FEW OR NO CLOUDS BELOW 12,000 FEET WITH NO
SIGNIFICANT WEATHER AND/OR OBSTRUCTIONS TO VISIBILITY.

OHZ001>008-015>018-024>027-034-035-043-044-300500-
   NORTHWEST OHIO

CITY           SKY/WX    TMP DP  RH WIND       PRES   REMARKS
DEFIANCE       CLOUDY    42  35  76 SW9G20    29.83F
FINDLAY        CLOUDY    45  34  65 SW20G30   29.83F
TOLEDO EXPRESS CLOUDY    41  33  73 W20       29.80S
TOLEDO EXEC    CLOUDY    42  33  70 SW22G29   29.81F
LIMA           LGT RAIN  43  34  70 SW20G26   29.86S
$$

OHZ009>014-019>023-028>033-038-089-300500-
   NORTHEAST OHIO

CITY           SKY/WX    TMP DP  RH WIND       PRES   REMARKS
CLE-HOPKINS    CLOUDY    39  31  72 S20G30    29.85F
CLE-LAKEFRONT  CLOUDY    40  32  73 S24G38    29.82F
CUY CO. ARPT   NOT AVBL
LORAIN-ELYRIA  CLOUDY    39  32  76 SW17G26   29.83F
ASHTABULA      CLOUDY    38  30  73 SW17G38   29.86F
AKRON-CANTON   CLOUDY    37  32  82 SW17      29.91F
WOOSTER        CLOUDY    38  32  79 SW18G28   29.88F
MANSFIELD      CLOUDY    39  33  79 S22G35    29.86F
YOUNGSTOWN     FLURRIES  35  32  88 S9        29.91F WCI  28
$$

OHZ042-051>053-060>062-070>072-077>081-300500-
  SOUTHWEST OHIO

CITY           SKY/WX    TMP DP  RH WIND       PRES   REMARKS
CINC-COVINGTON CLOUDY    45  38  76 SW7       29.98F
CINC-LUNKEN    CLOUDY    42  40  92 S6        30.00F
HAMILTON       CLOUDY    42  39  89 CALM      29.97F
DAYTON         MOCLDY    42  34  73 SW12      29.93F
WRIGHT-PAT AFB MOCLDY    42  35  76 S13       29.92F
DAYTON GENERAL CLOUDY    44  34  67 SW9       29.94F
WILMINGTON     CLOUDY    40  35  83 S3        29.96F
$$

OHZ036-037-039>041-045>050-054>059-063>069-073>076-082>088-300500-
  CENTRAL AND SOUTHEAST OHIO

CITY           SKY/WX    TMP DP  RH WIND       PRES   REMARKS
COLUMBUS       CLOUDY    42  38  85 S6        29.96F
OSU AIRPORT    CLOUDY    41  34  76 S9        29.94F
BOLTON FIELD   CLOUDY   N/A N/A N/A S13       29.96F
RICKENBACK AFB CLOUDY    42  33  71 SW9       29.97S
NEWARK         CLOUDY    42  36  79 SW8       29.96F
MARION         CLOUDY    39  32  76 S16G23    29.88F
LANCASTER      CLOUDY    43  34  70 SW9       29.99S
ZANESVILLE     LGT RAIN  40  32  73 SW10G17   29.98F
NEW PHILLY     CLOUDY    40  32  73 VRB6      29.96F
$$



USA.gov is the U.S. government's official web portal to all federal, state and local government web resources and services.